OVOQ07 UAAA-ZW02

Flight info

Callsign OVOQ07
Flight time N/A
Altitude 41000
Route PIGAL7E PIGAL M610 RULAD/K0789S1250 A460 XKC
Aircraft E55P/M-SBDFGHJ2RWY/LB2

Departure

Time 2026-04-29 12:54
Airport Almaty International Airport (UAAA)

Arrival

Time N/A
Airport ZW02
Time Latitude Longitude Altitude Speed Heading
2026-04-29 12:37 43.34752 77.02092 2232 ft 0 kts
2026-04-29 12:49 43.34756 77.02093 2232 ft 1 kts
2026-04-29 12:50 43.34768 77.02093 2232 ft 2 kts
2026-04-29 12:50 43.34786 77.02104 2232 ft 3 kts 53°
2026-04-29 12:50 43.34788 77.02138 2232 ft 3 kts 95°
2026-04-29 12:50 43.34787 77.02162 2232 ft 2 kts 95°
2026-04-29 12:51 43.34786 77.02182 2232 ft 1 kts 95°
2026-04-29 12:51 43.34785 77.02194 2233 ft 0 kts 95°
2026-04-29 12:51 43.34785 77.02196 2233 ft 0 kts 95°
2026-04-29 12:51 43.34784 77.02204 2233 ft 2 kts 94°
2026-04-29 12:52 43.34782 77.02243 2233 ft 5 kts 93°
2026-04-29 12:52 43.34780 77.02309 2235 ft 7 kts 92°
2026-04-29 12:52 43.34777 77.02396 2237 ft 10 kts 91°
2026-04-29 12:52 43.34772 77.02515 2238 ft 14 kts 93°
2026-04-29 12:53 43.34785 77.02626 2238 ft 0 kts 56°
2026-04-29 12:53 43.34786 77.02627 2238 ft 0 kts 56°
2026-04-29 12:54 43.34892 77.02838 2237 ft 66 kts 54°
2026-04-29 12:54 43.35292 77.03649 2251 ft 132 kts 54°
2026-04-29 12:54 43.35870 77.04799 2560 ft 164 kts 54°
2026-04-29 12:54 43.36537 77.06151 3191 ft 183 kts 54°
2026-04-29 12:55 43.37305 77.07697 3730 ft 210 kts 57°
2026-04-29 12:55 43.38058 77.09493 4560 ft 222 kts 60°
2026-04-29 12:55 43.38828 77.11365 5369 ft 234 kts 58°
2026-04-29 12:55 43.39694 77.13193 6363 ft 234 kts 55°
2026-04-29 12:56 43.40610 77.15065 7224 ft 240 kts 55°
2026-04-29 12:56 43.41552 77.16971 8098 ft 244 kts 55°
2026-04-29 12:56 43.42502 77.18895 8995 ft 246 kts 56°
2026-04-29 12:56 43.43453 77.20816 9904 ft 248 kts 56°
2026-04-29 12:57 43.44427 77.22791 10776 ft 252 kts 56°
2026-04-29 12:57 43.45410 77.24783 11604 ft 257 kts 56°
2026-04-29 12:57 43.46402 77.26795 12460 ft 262 kts 55°
2026-04-29 12:57 43.47419 77.28855 13305 ft 265 kts 55°
2026-04-29 12:58 43.48454 77.30961 14187 ft 268 kts 55°
2026-04-29 12:58 43.49496 77.33081 15008 ft 272 kts 54°
2026-04-29 12:58 43.50560 77.35243 15829 ft 277 kts 54°
2026-04-29 12:58 43.51630 77.37424 16669 ft 280 kts 53°
2026-04-29 12:59 43.52736 77.39668 17490 ft 284 kts 53°
2026-04-29 12:59 43.53835 77.41909 18285 ft 288 kts 53°
2026-04-29 12:59 43.54973 77.44223 19069 ft 293 kts 53°
2026-04-29 12:59 43.56115 77.46555 19846 ft 297 kts 53°
2026-04-29 13:00 43.57274 77.48920 20639 ft 301 kts 53°
2026-04-29 13:00 43.58187 77.51500 21352 ft 311 kts 75°
2026-04-29 13:00 43.58205 77.54523 22117 ft 318 kts 91°
2026-04-29 13:00 43.58149 77.57556 22873 ft 320 kts 88°
2026-04-29 13:01 43.58106 77.60616 23576 ft 325 kts 88°
2026-04-29 13:01 43.58067 77.63756 24262 ft 330 kts 88°
2026-04-29 13:01 43.58026 77.66936 24913 ft 335 kts 89°
2026-04-29 13:01 43.57984 77.70152 25549 ft 339 kts 89°
2026-04-29 13:02 43.57940 77.73400 26178 ft 343 kts 89°
2026-04-29 13:02 43.57896 77.76701 26770 ft 347 kts 89°
2026-04-29 13:02 43.57850 77.80034 27366 ft 351 kts 89°
2026-04-29 13:02 43.57803 77.83375 27937 ft 355 kts 89°
2026-04-29 13:03 43.57753 77.86826 28493 ft 359 kts 89°
2026-04-29 13:03 43.57700 77.90260 29033 ft 364 kts 89°
2026-04-29 13:03 43.57648 77.93721 29564 ft 368 kts 89°
2026-04-29 13:03 43.57594 77.97259 30093 ft 371 kts 89°
2026-04-29 13:04 43.57537 78.00832 30595 ft 375 kts 89°
2026-04-29 13:04 43.57479 78.04439 31200 ft 376 kts 89°
2026-04-29 13:04 43.57422 78.07977 31872 ft 374 kts 89°
2026-04-29 13:04 43.57363 78.11543 32516 ft 372 kts 89°
2026-04-29 13:05 43.57303 78.15111 33093 ft 373 kts 89°
2026-04-29 13:05 43.57244 78.18656 33671 ft 373 kts 89°
2026-04-29 13:05 43.57180 78.22263 34224 ft 373 kts 90°
2026-04-29 13:05 43.57116 78.25821 34694 ft 372 kts 89°
2026-04-29 13:06 43.57051 78.29372 35127 ft 372 kts 89°
2026-04-29 13:06 43.56987 78.32910 35540 ft 372 kts 89°
2026-04-29 13:06 43.56920 78.36468 35970 ft 372 kts 89°
2026-04-29 13:06 43.56853 78.40015 36455 ft 372 kts 89°
2026-04-29 13:07 43.56785 78.43566 36879 ft 372 kts 89°
2026-04-29 13:07 43.56715 78.47124 37278 ft 373 kts 89°
2026-04-29 13:07 43.56645 78.50711 37663 ft 373 kts 89°
2026-04-29 13:07 43.56572 78.54256 38039 ft 374 kts 89°
2026-04-29 13:08 43.56500 78.57863 38405 ft 374 kts 89°
2026-04-29 13:08 43.56424 78.61455 38753 ft 375 kts 89°
2026-04-29 13:08 43.56348 78.64990 39099 ft 375 kts 88°
2026-04-29 13:08 43.56274 78.68578 39437 ft 374 kts 89°
2026-04-29 13:09 43.56194 78.72177 39748 ft 375 kts 89°
2026-04-29 13:09 43.56117 78.75725 40013 ft 376 kts 89°
2026-04-29 13:09 43.56036 78.79343 40294 ft 377 kts 89°
2026-04-29 13:09 43.55956 78.82939 40591 ft 376 kts 89°
2026-04-29 13:10 43.55871 78.86538 40863 ft 377 kts 89°
2026-04-29 13:10 43.55790 78.90091 41100 ft 378 kts 89°
2026-04-29 13:10 43.55703 78.93747 41165 ft 385 kts 89°
2026-04-29 13:11 43.55524 79.01271 41164 ft 403 kts 89°
2026-04-29 13:11 43.55328 79.09130 41157 ft 421 kts 89°
2026-04-29 13:12 43.55121 79.17312 41151 ft 437 kts 89°
2026-04-29 13:12 43.54897 79.25779 41145 ft 453 kts 89°
2026-04-29 13:13 43.54659 79.34609 41136 ft 467 kts 90°
2026-04-29 13:13 43.54409 79.43648 41129 ft 481 kts 90°
2026-04-29 13:14 43.54145 79.52782 41135 ft 474 kts 90°
2026-04-29 13:14 43.53881 79.61814 41124 ft 476 kts 90°
2026-04-29 13:15 43.53605 79.71009 41149 ft 487 kts 90°
2026-04-29 13:15 43.53315 79.80367 41140 ft 489 kts 90°
2026-04-29 13:16 43.53022 79.89577 41145 ft 482 kts 90°
2026-04-29 13:16 43.52724 79.98734 41142 ft 476 kts 90°
2026-04-29 13:17 43.52423 80.07780 41160 ft 481 kts 90°
2026-04-29 13:17 43.52108 80.17050 41166 ft 490 kts 90°
2026-04-29 13:18 43.51780 80.26439 41157 ft 488 kts 90°
2026-04-29 13:18 43.51452 80.35583 41169 ft 477 kts 90°
2026-04-29 13:19 43.51121 80.44675 41170 ft 474 kts 90°
2026-04-29 13:19 43.50780 80.53789 41176 ft 483 kts 90°
2026-04-29 13:20 43.50428 80.63032 41178 ft 489 kts 90°
2026-04-29 13:20 43.49489 80.72219 41187 ft 485 kts 113°
2026-04-29 13:20 43.47719 80.76163 41189 ft 479 kts 133°
2026-04-29 13:21 43.45322 80.79275 41218 ft 474 kts 140°
2026-04-29 13:21 43.40453 80.85408 41228 ft 480 kts 139°
2026-04-29 13:22 43.35486 80.91670 41250 ft 489 kts 139°
2026-04-29 13:22 43.30510 80.97927 41260 ft 487 kts 139°
2026-04-29 13:23 43.25550 81.04154 41273 ft 479 kts 139°
2026-04-29 13:23 43.20660 81.10274 41279 ft 476 kts 139°
2026-04-29 13:24 43.15743 81.16417 41279 ft 484 kts 139°
2026-04-29 13:24 43.10731 81.22664 40779 ft 484 kts 139°
2026-04-29 13:24 43.08270 81.25723 40269 ft 477 kts 139°
2026-04-29 13:25 43.05826 81.28760 39755 ft 473 kts 139°
2026-04-29 13:25 43.01018 81.34726 38718 ft 469 kts 139°
2026-04-29 13:25 42.98584 81.37741 38187 ft 469 kts 140°
2026-04-29 13:26 42.96187 81.40710 37666 ft 468 kts 140°
2026-04-29 13:26 42.93793 81.43665 37157 ft 467 kts 140°
2026-04-29 13:26 42.91358 81.46674 36605 ft 470 kts 140°
2026-04-29 13:26 42.88944 81.49646 36066 ft 472 kts 140°
2026-04-29 13:27 42.86490 81.52670 35574 ft 475 kts 140°
2026-04-29 13:27 42.84031 81.55697 35097 ft 477 kts 141°
2026-04-29 13:27 42.81571 81.58719 34617 ft 480 kts 141°
2026-04-29 13:27 42.79092 81.61762 34112 ft 483 kts 141°
2026-04-29 13:28 42.76592 81.64827 33557 ft 486 kts 141°
2026-04-29 13:28 42.74094 81.67883 32991 ft 487 kts 142°
2026-04-29 13:28 42.71601 81.70930 32436 ft 488 kts 141°
2026-04-29 13:28 42.69073 81.74013 31880 ft 488 kts 142°
2026-04-29 13:29 42.66452 81.76926 31331 ft 487 kts 144°
2026-04-29 13:29 42.63833 81.79830 30779 ft 487 kts 144°
2026-04-29 13:29 42.61204 81.82739 30230 ft 487 kts 144°
2026-04-29 13:29 42.58589 81.85630 29695 ft 486 kts 144°
2026-04-29 13:30 42.56007 81.88484 29163 ft 485 kts 144°
2026-04-29 13:30 42.53402 81.91360 28621 ft 483 kts 143°
2026-04-29 13:30 42.50805 81.94225 28090 ft 482 kts 143°
2026-04-29 13:30 42.48183 81.97107 27548 ft 482 kts 143°
2026-04-29 13:31 42.45627 81.99932 27021 ft 481 kts 143°
2026-04-29 13:31 42.43038 82.02762 26494 ft 480 kts 143°
2026-04-29 13:31 42.40449 82.05610 25976 ft 479 kts 142°
2026-04-29 13:31 42.37857 82.08452 25447 ft 477 kts 142°
2026-04-29 13:32 42.35312 82.11239 24924 ft 477 kts 142°
2026-04-29 13:32 42.32730 82.14061 24390 ft 479 kts 142°
2026-04-29 13:32 42.30157 82.16879 23861 ft 480 kts 141°
2026-04-29 13:32 42.27554 82.19717 23333 ft 479 kts 141°
2026-04-29 13:33 42.24993 82.22510 22793 ft 476 kts 140°
2026-04-29 13:33 42.22423 82.25328 22263 ft 471 kts 141°
2026-04-29 13:33 42.19902 82.28069 21745 ft 466 kts 141°
2026-04-29 13:33 42.17399 82.30793 21223 ft 461 kts 141°
2026-04-29 13:34 42.14939 82.33472 20695 ft 451 kts 141°
2026-04-29 13:34 42.12529 82.36086 20178 ft 445 kts 141°
2026-04-29 13:34 42.10127 82.38690 19680 ft 438 kts 141°
2026-04-29 13:34 42.07770 82.41245 19177 ft 432 kts 141°
2026-04-29 13:35 42.05441 82.43765 18690 ft 426 kts 141°
2026-04-29 13:35 42.03174 82.46222 18215 ft 420 kts 141°
2026-04-29 13:35 42.00912 82.48668 17750 ft 414 kts 141°
2026-04-29 13:35 41.98695 82.51060 17291 ft 409 kts 141°
2026-04-29 13:36 41.96502 82.53429 16849 ft 403 kts 141°
2026-04-29 13:36 41.94332 82.55769 16393 ft 398 kts 141°
2026-04-29 13:36 41.92184 82.58077 15947 ft 394 kts 141°
2026-04-29 13:36 41.90057 82.60367 15504 ft 389 kts 141°
2026-04-29 13:37 41.87966 82.62614 15076 ft 385 kts 141°
2026-04-29 13:37 41.85903 82.64831 14651 ft 381 kts 142°
2026-04-29 13:37 41.83838 82.67044 14217 ft 376 kts 142°
2026-04-29 13:37 41.81793 82.69237 13790 ft 372 kts 142°
2026-04-29 13:38 41.79790 82.71384 13369 ft 368 kts 142°
2026-04-29 13:38 41.77815 82.73494 12962 ft 364 kts 142°
2026-04-29 13:38 41.75841 82.75603 12558 ft 360 kts 142°
2026-04-29 13:38 41.73914 82.77661 12158 ft 357 kts 142°
2026-04-29 13:39 41.71973 82.79735 11759 ft 354 kts 142°
2026-04-29 13:39 41.70058 82.81777 11366 ft 351 kts 142°
2026-04-29 13:39 41.68167 82.83798 10981 ft 343 kts 141°
2026-04-29 13:39 41.66633 82.86084 10610 ft 323 kts 125°
2026-04-29 13:40 41.65296 82.88382 10258 ft 306 kts 127°
2026-04-29 13:40 41.64024 82.90584 9978 ft 290 kts 127°
2026-04-29 13:40 41.62799 82.92687 9686 ft 289 kts 126°
2026-04-29 13:40 41.61554 82.94824 9391 ft 291 kts 126°
2026-04-29 13:41 41.60304 82.96965 9087 ft 293 kts 126°
2026-04-29 13:41 41.59051 82.99113 8773 ft 295 kts 125°
2026-04-29 13:41 41.58221 83.01555 8466 ft 288 kts 95°
2026-04-29 13:41 41.58358 83.04169 8172 ft 282 kts 78°
2026-04-29 13:42 41.58590 83.06757 7833 ft 280 kts 80°
2026-04-29 13:42 41.58825 83.09331 7351 ft 283 kts 79°
2026-04-29 13:42 41.59456 83.11662 7088 ft 259 kts 49°
2026-04-29 13:42 41.60873 83.12891 7054 ft 240 kts 12°
2026-04-29 13:43 41.62507 83.12659 7083 ft 244 kts 339°
2026-04-29 13:43 41.64157 83.12026 7080 ft 245 kts 352°
2026-04-29 13:43 41.65840 83.11676 7068 ft 248 kts 353°
2026-04-29 13:43 41.67575 83.11333 6733 ft 250 kts 347°
2026-04-29 13:44 41.69018 83.10075 6375 ft 256 kts 311°
2026-04-29 13:44 41.69640 83.07839 6050 ft 266 kts 278°
2026-04-29 13:44 41.69388 83.05415 5739 ft 259 kts 263°
2026-04-29 13:44 41.69165 83.03227 5417 ft 218 kts 268°
2026-04-29 13:45 41.68990 83.01352 5194 ft 188 kts 269°
2026-04-29 13:45 41.68847 82.99697 4994 ft 174 kts 269°
2026-04-29 13:45 41.68715 82.98138 4763 ft 165 kts 270°
2026-04-29 13:45 41.68584 82.96641 4544 ft 159 kts 269°
2026-04-29 13:46 41.68459 82.95203 4339 ft 153 kts 270°
2026-04-29 13:46 41.68339 82.93856 4138 ft 140 kts 270°
2026-04-29 13:46 41.68231 82.92626 3969 ft 128 kts 270°
2026-04-29 13:46 41.68123 82.91469 3811 ft 123 kts 269°
2026-04-29 13:47 41.68015 82.90342 3671 ft 119 kts 271°
2026-04-29 13:47 41.67920 82.89239 3523 ft 121 kts 270°
2026-04-29 13:47 41.67828 82.88130 3430 ft 115 kts 267°
2026-04-29 13:47 41.67764 82.87176 3425 ft 93 kts 257°
2026-04-29 13:48 41.67693 82.86511 3425 ft 41 kts 272°
2026-04-29 13:48 41.67689 82.86369 3425 ft 9 kts 134°
2026-04-29 13:48 41.67691 82.86459 3425 ft 11 kts 81°
2026-04-29 13:48 41.67705 82.86593 3425 ft 17 kts 81°
2026-04-29 13:49 41.67721 82.86787 3425 ft 24 kts 86°
2026-04-29 13:49 41.67742 82.87058 3425 ft 33 kts 85°
2026-04-29 13:49 41.67815 82.87306 3425 ft 12 kts
2026-04-29 13:49 41.67898 82.87292 3425 ft 11 kts 353°
2026-04-29 13:50 41.67977 82.87293 3425 ft 11 kts 37°
2026-04-29 13:50 41.67996 82.87380 3425 ft 9 kts 67°
2026-04-29 13:50 41.68026 82.87440 3425 ft 7 kts 354°
2026-04-29 13:50 41.68056 82.87434 3425 ft 0 kts 353°
2026-04-29 13:51 41.68058 82.87434 3425 ft 0 kts 353°